Regional Weather Roundup
Issued by NWS Albany, NY

Home | Current Version | Previous Version | Text Only | Print | Product List | Glossary On
Versions: 1 2 3 4 5 6 7 8 9 10 11 12 13 14 15 16 17 18 19 20 21 22 23 24 25 26 27 28 29 30 31 32 33 34 35 36 37 38 39 40 41 42 43 44 45 46 47 48 49 50
000
ASUS41 KALY 200510
RWRALY

NEW YORK STATE HOURLY WEATHER ROUNDUP
NATIONAL WEATHER SERVICE ALBANY NY
100 AM EDT MON OCT 20 2014

NOTE: "FAIR" INDICATES FEW OR NO CLOUDS BELOW 12,000 FEET WITH NO
SIGNIFICANT WEATHER AND/OR NO OBSTRUCTIONS TO VISIBILITY.

NYZ032-033-038>043-046>054-057>066-NYZ062>081-200600-
EAST


CITY           SKY/WX    TMP DP  RH WIND       PRES   REMARKS
ALBANY         NOT AVBL
GLENS FALLS    NOT AVBL
POUGHKEEPSIE   NOT AVBL
NEW YORK CITY  NOT AVBL
CENTRAL PARK   FAIR      44  26  49 NW8       30.09S
$$

NYZ005>009-017-018-044>046-055-056-200600-
CENTRAL


CITY           SKY/WX    TMP DP  RH WIND       PRES   REMARKS
SYRACUSE       NOT AVBL
ROME           NOT AVBL
ELMIRA         NOT AVBL
BINGHAMTON     NOT AVBL
$$

NYZ026>034-041>043-200600-
NORTH


CITY           SKY/WX    TMP DP  RH WIND       PRES   REMARKS
WATERTOWN      NOT AVBL
FORT DRUM      NOT AVBL
MASSENA        NOT AVBL
PLATTSBURGH    NOT AVBL
$$

NYZ001>004-010>016-019>021-200600-
WEST


CITY           SKY/WX    TMP DP  RH WIND       PRES   REMARKS
BUFFALO        NOT AVBL
ROCHESTER      NOT AVBL
$$

             KEY
       WCI = WIND CHILL INDEX
       VSB = VISIBILITY
       HX  = HEAT INDEX
$$



USA.gov is the U.S. government's official web portal to all federal, state and local government web resources and services.